Kalamazoo, MI

7:19 AM EDT on October 21, 2017 (GMT -0400)
Kalamazoo-Battle Creek International

Weather History for KAZO - March, 2012

Change the Weather History Date:

Saturday, March 17, 2012

  Actual Average Record
Temperature  
Mean Temperature 68 °F 37 °F  
Max Temperature 79 °F 46 °F 79 °F (2012)
Min Temperature 56 °F 28 °F 7 °F (2014)
Degree Days  
Heating Degree Days 0 28  
Month to date heating degree days 533  
Since 1 July heating degree days 5306  
Cooling Degree Days 3 0  
Month to date cooling degree days 0  
Year to date cooling degree days 0  
Growing Degree Days 16 (Base 50)    
Moisture  
Dew Point 54 °F    
Average Humidity 68    
Maximum Humidity 90    
Minimum Humidity 42    
Precipitation  
Precipitation 0.00 in 0.06 in 0.70 in (1965)
Month to date precipitation 1.28 1.21  
Year to date precipitation 4.45  
Sea Level Pressure  
Sea Level Pressure 30.10 in    
Wind  
Wind Speed 8 mph (South)    
Max Wind Speed 18 mph    
Max Gust Speed 24 mph    
Visibility 10 miles    
Events      
T = Trace of Precipitation, MM = Missing Value Source: NWS Daily Summary

Daily Weather History Graph

Daily Weather History Graph

Search for Another Location

Airport or City:

Trip Planner

Search our weather history database for the weather conditions in past years. The results will help you decide how hot, cold, wet, or windy it might be!

Date:

Astronomy

Mar. 17, 2012 Rise Set
Actual Time 7:49 AM EDT 7:51 PM EDT
Civil Twilight 7:21 AM EDT 8:19 PM EDT
Nautical Twilight 6:49 AM EDT 8:52 PM EDT
Astronomical Twilight 6:16 AM EDT 9:25 PM EDT
Moon 4:55 AM EDT (3/17) 3:10 PM EDT (3/17)
Length of Visible Light 12h 57m
Length of Day
12h 01m
Waning Crescent, 23% of the Moon is Illuminated
Mar 17
Waning Crescent
Mar 22
New
Mar 30
First Quarter
Apr 6
Full
Apr 13
Last Quarter

Hourly Weather History & Observations

Time (EDT) Temp. Dew Point Humidity Pressure Visibility Wind Dir Wind Speed Gust Speed Precip Events Conditions
12:53 AM 62.1 °F 55.0 °F 78% 30.10 in 10.0 mi South 6.9 mph - N/A   Clear
1:53 AM 62.1 °F 55.0 °F 78% 30.09 in 10.0 mi South 6.9 mph - N/A   Clear
2:53 AM 61.0 °F 54.0 °F 78% 30.10 in 9.0 mi South 5.8 mph - N/A   Clear
3:53 AM 60.1 °F 54.0 °F 80% 30.11 in 10.0 mi South 5.8 mph - N/A   Clear
4:53 AM 59.0 °F 54.0 °F 83% 30.11 in 10.0 mi South 5.8 mph - N/A   Clear
5:53 AM 57.9 °F 53.1 °F 84% 30.12 in 10.0 mi South 5.8 mph - N/A   Clear
6:53 AM 57.0 °F 53.1 °F 87% 30.13 in 10.0 mi South 4.6 mph - N/A   Clear
7:53 AM 55.9 °F 53.1 °F 90% 30.14 in 8.0 mi SSE 3.5 mph - N/A   Clear
8:53 AM 57.9 °F 54.0 °F 87% 30.16 in 8.0 mi SSE 4.6 mph - N/A   Clear
9:53 AM 61.0 °F 55.9 °F 83% 30.16 in 8.0 mi South 8.1 mph - N/A   Clear
10:53 AM 64.9 °F 57.0 °F 75% 30.17 in 10.0 mi South 6.9 mph - N/A   Clear
11:53 AM 68.0 °F 57.0 °F 68% 30.16 in 10.0 mi South 10.4 mph - N/A   Clear
12:53 PM 72.0 °F 55.0 °F 55% 30.14 in 10.0 mi South 13.8 mph - N/A   Clear
1:53 PM 75.0 °F 55.0 °F 50% 30.12 in 10.0 mi South 16.1 mph 21.9 mph N/A   Clear
2:53 PM 75.9 °F 54.0 °F 46% 30.09 in 10.0 mi SSE 13.8 mph 20.7 mph N/A   Clear
3:53 PM 77.0 °F 53.1 °F 43% 30.07 in 10.0 mi South 12.7 mph - N/A   Clear
4:53 PM 78.1 °F 53.1 °F 42% 30.05 in 10.0 mi South 11.5 mph 19.6 mph N/A   Clear
5:53 PM 77.0 °F 53.1 °F 43% 30.04 in 10.0 mi SSE 9.2 mph 19.6 mph N/A   Partly Cloudy
6:53 PM 75.0 °F 53.1 °F 46% 30.05 in 10.0 mi South 10.4 mph - N/A   Clear
7:53 PM 68.0 °F 53.1 °F 59% 30.06 in 10.0 mi South 5.8 mph - N/A   Clear
8:53 PM 69.1 °F 53.1 °F 57% 30.06 in 10.0 mi South 3.5 mph - N/A   Clear
9:53 PM 66.0 °F 54.0 °F 65% 30.06 in 10.0 mi SE 4.6 mph - N/A   Clear
10:53 PM 61.0 °F 53.1 °F 75% 30.07 in 10.0 mi South 5.8 mph - N/A   Clear
11:53 PM 64.0 °F 54.0 °F 70% 30.07 in 10.0 mi SSE 5.8 mph - N/A   Clear